SQ9IWE-13 Weather Reports


Display with metric or nautical units.
time (UTC)temp
F
wind
direction
speed
MPH
gust
MPH
rain 1hr
in
rain 24hr
in
rain mn
in
humidity
%
barometer
mb
20260510151000 67 0.0 0.0 0.00 0.00 0.00 41 1011.4
20260510150000 67 0.0 0.0 0.00 0.00 0.00 41 1011.4
20260510145000 67 0.0 0.0 0.00 0.00 0.00 41 1011.4
20260510144000 67 0.0 0.0 0.00 0.00 0.00 40 1011.7
20260510143000 67 0.0 0.0 0.00 0.00 0.00 40 1011.8
20260510141000 67 0.0 0.0 0.00 0.00 0.00 43 1012.1
20260510140001 67 0.0 0.0 0.00 0.00 0.00 41 1012.2
20260510135001 67 0.0 0.0 0.00 0.00 0.00 42 1012.3
20260510134001 66 0.0 0.0 0.00 0.00 0.00 42 1012.4
20260510133001 66 0.0 0.0 0.00 0.00 0.00 42 1012.7
20260510132001 66 0.0 0.0 0.00 0.00 0.00 41 1012.8
20260510131001 66 0.0 0.0 0.00 0.00 0.00 43 1012.8
20260510130001 66 0.0 0.0 0.00 0.00 0.00 42 1012.9
20260510125001 66 0.0 0.0 0.00 0.00 0.00 42 1013.1
20260510124001 65 0.0 0.0 0.00 0.00 0.00 43 1013.0
20260510123001 66 0.0 0.0 0.00 0.00 0.00 43 1013.2
20260510122001 66 0.0 0.0 0.00 0.00 0.00 43 1013.4
20260510121001 65 0.0 0.0 0.00 0.00 0.00 44 1013.4
20260510120001 66 0.0 0.0 0.00 0.00 0.00 44 1013.5
20260510115001 66 0.0 0.0 0.00 0.00 0.00 43 1013.6
20260510114001 68 0.0 0.0 0.00 0.00 0.00 42 1013.8
20260510113001 68 0.0 0.0 0.00 0.00 0.00 44 1013.9
20260510112001 69 0.0 0.0 0.00 0.00 0.00 42 1014.0
20260510111001 68 0.0 0.0 0.00 0.00 0.00 43 1014.1
20260510110001 69 0.0 0.0 0.00 0.00 0.00 41 1014.3
20260510105001 68 0.0 0.0 0.00 0.00 0.00 42 1014.6
20260510104001 68 0.0 0.0 0.00 0.00 0.00 41 1014.9
20260510103001 69 0.0 0.0 0.00 0.00 0.00 40 1015.0
20260510102001 68 0.0 0.0 0.00 0.00 0.00 41 1015.3
20260510101001 67 0.0 0.0 0.00 0.00 0.00 43 1015.3
20260510095000 66 0.0 0.0 0.00 0.00 0.00 43 1015.5
20260510094001 67 0.0 0.0 0.00 0.00 0.00 44 1015.7
20260510093000 65 0.0 0.0 0.00 0.00 0.00 43 1015.6
20260510092000 62 0.0 0.0 0.00 0.00 0.00 45 1015.8
20260510091000 65 0.0 0.0 0.00 0.00 0.00 45 1016.0
20260510090000 65 0.0 0.0 0.00 0.00 0.00 45 1016.1
20260510085000 64 0.0 0.0 0.00 0.00 0.00 46 1016.2
20260510084000 63 0.0 0.0 0.00 0.00 0.00 48 1016.5
20260510083000 62 0.0 0.0 0.00 0.00 0.00 48 1016.5
20260510082000 62 0.0 0.0 0.00 0.00 0.00 48 1016.6
20260510080000 61 0.0 0.0 0.00 0.00 0.00 50 1016.7
20260510075000 61 0.0 0.0 0.00 0.00 0.00 50 1016.7
20260510074000 61 0.0 0.0 0.00 0.00 0.00 49 1016.8
20260510073000 60 0.0 0.0 0.00 0.00 0.00 50 1016.8
20260510072001 58 0.0 0.0 0.00 0.00 0.00 53 1016.8
20260510071001 61 0.0 0.0 0.00 0.00 0.00 50 1016.9
20260510070001 59 0.0 0.0 0.00 0.00 0.00 57 1016.9
20260510065001 58 0.0 0.0 0.00 0.00 0.00 62 1016.8
20260510064001 58 0.0 0.0 0.00 0.00 0.00 62 1016.8
20260510063001 56 0.0 0.0 0.00 0.00 0.00 65 1016.9
20260510062001 60 0.0 0.0 0.00 0.00 0.00 62 1016.9
20260510061001 58 0.0 0.0 0.00 0.00 0.00 65 1017.1
20260510055001 62 0.0 0.0 0.00 0.00 0.00 61 1017.3
20260510054001 60 0.0 0.0 0.00 0.00 0.00 63 1017.3
20260510053001 59 0.0 0.0 0.00 0.00 0.00 66 1017.5
20260510052001 60 0.0 0.0 0.00 0.00 0.00 64 1017.5
20260510051001 58 0.0 0.0 0.00 0.00 0.00 67 1017.6
20260510050001 58 0.0 0.0 0.00 0.00 0.00 66 1017.5
20260510044001 55 0.0 0.0 0.00 0.00 0.00 71 1017.6
20260510043001 53 0.0 0.0 0.00 0.00 0.00 78 1017.8
20260510042001 50 0.0 0.0 0.00 0.00 0.00 90 1017.7
20260510041001 46 0.0 0.0 0.00 0.00 0.00 100 1017.7
20260510040001 42 0.0 0.0 0.00 0.00 0.00 100 1017.8
20260510035000 40 0.0 0.0 0.00 0.00 0.00 100 1017.8
20260510034000 40 0.0 0.0 0.00 0.00 0.00 100 1017.7
20260510033000 40 0.0 0.0 0.00 0.00 0.00 100 1017.8
20260510032000 39 0.0 0.0 0.00 0.00 0.00 100 1017.8
20260510031000 39 0.0 0.0 0.00 0.00 0.00 100 1017.7
20260510030000 39 0.0 0.0 0.00 0.00 0.00 100 1017.8
20260510025000 39 0.0 0.0 0.00 0.00 0.00 100 1017.8
20260510024001 40 0.0 0.0 0.00 0.00 0.00 100 1017.8
20260510023000 40 0.0 0.0 0.00 0.00 0.00 100 1017.8
20260510022000 41 0.0 0.0 0.00 0.00 0.00 100 1018.1
20260510021000 41 0.0 0.0 0.00 0.00 0.00 100 1018.1
20260510020000 41 0.0 0.0 0.00 0.00 0.00 100 1018.2
20260510015000 41 0.0 0.0 0.00 0.00 0.00 100 1018.1
20260510014001 41 0.0 0.0 0.00 0.00 0.00 100 1018.2
20260510013001 41 0.0 0.0 0.00 0.00 0.00 100 1018.1
20260510012001 41 0.0 0.0 0.00 0.00 0.00 100 1018.2
20260510011001 41 0.0 0.0 0.00 0.00 0.00 100 1018.1
20260510010001 41 0.0 0.0 0.00 0.00 0.00 100 1018.2
20260510005001 42 0.0 0.0 0.00 0.00 0.00 100 1018.2
20260510004001 42 0.0 0.0 0.00 0.00 0.00 100 1018.3
20260510003001 42 0.0 0.0 0.00 0.00 0.00 100 1018.3
20260510002001 42 0.0 0.0 0.00 0.00 0.00 100 1018.5
20260510001001 42 0.0 0.0 0.00 0.00 0.00 100 1018.5
20260510000001 42 0.0 0.0 0.00 0.00 0.00 100 1018.5
20260509235001 43 0.0 0.0 0.00 0.00 0.00 100 1018.5
20260509234001 43 0.0 0.0 0.00 0.00 0.00 100 1018.6
20260509233001 43 0.0 0.0 0.00 0.00 0.00 100 1018.7
20260509232001 44 0.0 0.0 0.00 0.00 0.00 100 1018.7
20260509231001 43 0.0 0.0 0.00 0.00 0.00 100 1018.9
20260509230001 44 0.0 0.0 0.00 0.00 0.00 100 1019.0
20260509224001 44 0.0 0.0 0.00 0.00 0.00 100 1018.9
20260509223001 45 0.0 0.0 0.00 0.00 0.00 100 1019.1
20260509222001 45 0.0 0.0 0.00 0.00 0.00 100 1019.2
20260509221001 45 0.0 0.0 0.00 0.00 0.00 100 1019.2
20260509220001 45 0.0 0.0 0.00 0.00 0.00 100 1019.2
20260509215000 45 0.0 0.0 0.00 0.00 0.00 100 1019.2
20260509214000 46 0.0 0.0 0.00 0.00 0.00 100 1019.3
20260509213000 46 0.0 0.0 0.00 0.00 0.00 100 1019.3
20260509212000 46 0.0 0.0 0.00 0.00 0.00 100 1019.2
20260509211000 46 0.0 0.0 0.00 0.00 0.00 99 1019.4
20260509210000 47 0.0 0.0 0.00 0.00 0.00 98 1019.4
20260509205000 47 0.0 0.0 0.00 0.00 0.00 96 1019.5
20260509204000 48 0.0 0.0 0.00 0.00 0.00 95 1019.5
20260509203000 48 0.0 0.0 0.00 0.00 0.00 93 1019.5
20260509202000 48 0.0 0.0 0.00 0.00 0.00 93 1019.5
20260509201000 49 0.0 0.0 0.00 0.00 0.00 92 1019.4
20260509200000 49 0.0 0.0 0.00 0.00 0.00 88 1019.3
20260509195000 50 0.0 0.0 0.00 0.00 0.00 87 1019.4
20260509194000 51 0.0 0.0 0.00 0.00 0.00 85 1019.4
20260509193000 51 0.0 0.0 0.00 0.00 0.00 84 1019.4
20260509192000 51 0.0 0.0 0.00 0.00 0.00 84 1019.4
20260509191000 51 0.0 0.0 0.00 0.00 0.00 83 1019.5
20260509190001 52 0.0 0.0 0.00 0.00 0.00 84 1019.5
20260509185001 52 0.0 0.0 0.00 0.00 0.00 83 1019.5
20260509184001 52 0.0 0.0 0.00 0.00 0.00 81 1019.4
20260509183001 52 0.0 0.0 0.00 0.00 0.00 80 1019.3
20260509182001 52 0.0 0.0 0.00 0.00 0.00 79 1019.3
20260509181001 53 0.0 0.0 0.00 0.00 0.00 77 1019.4
20260509180001 53 0.0 0.0 0.00 0.00 0.00 76 1019.3
20260509175001 53 0.0 0.0 0.00 0.00 0.00 75 1019.4
20260509174001 54 0.0 0.0 0.00 0.00 0.00 74 1019.4
20260509173001 54 0.0 0.0 0.00 0.00 0.00 72 1019.3
20260509172001 54 0.0 0.0 0.00 0.00 0.00 71 1019.2
20260509171001 55 0.0 0.0 0.00 0.00 0.00 70 1019.2
20260509170001 55 0.0 0.0 0.00 0.00 0.00 69 1019.0
20260509165001 55 0.0 0.0 0.00 0.00 0.00 68 1019.2
20260509164001 55 0.0 0.0 0.00 0.00 0.00 70 1019.3
20260509162001 55 0.0 0.0 0.00 0.00 0.00 69 1019.3
20260509161001 55 0.0 0.0 0.00 0.00 0.00 70 1019.2
20260509160001 56 0.0 0.0 0.00 0.00 0.00 68 1019.2
20260509155000 56 0.0 0.0 0.00 0.00 0.00 68 1019.3
20260509154001 57 0.0 0.0 0.00 0.00 0.00 66 1019.3
20260509153000 57 0.0 0.0 0.00 0.00 0.00 66 1019.2
20260509152000 57 0.0 0.0 0.00 0.00 0.00 65 1019.2